sat.trackr.live / text

‹ back to catalog

STARLINK-3576

NORAD 51883 · 2022-022AH

PAYLOAD ACTIVE UNKNOWN

§ Identity

Operator
Country
US
Launch date
2022-03-03
Launch site
AFETR
Launch vehicle
Mass (kg)
RCS (m²)

Purposes: comms

External: N2YO · Heavens-Above · Gunter

§ Orbital elements

Epoch: 2026-09-19T07:01:12.285984Z

Period
93.85 min
Inclination
53.1594°
Eccentricity
0.0001239
Mean motion
15.34392397 rev/d
Perigee alt
461.9 km
Apogee alt
463.6 km
Semi-major
6,840.9 km
B*
2.1964e-5
RAAN
195.0185°
Arg perigee
93.3068°
Mean anomaly
266.8076°
Rev number
25,267

§ Raw data

STARLINK-35761 51883U 22022AH  26262.29250331  .00000366  00000+0  21964-4 0  99962 51883  53.1594 195.0185 0001239  93.3068 266.8076 15.34392397252670

JSON: /api/v1/satellites/51883 · /tle

For live sub-satellite position, see the globe view (requires WebGL).

§ Visibility from observer

Set your observer location to see the next 7 days of passes ≥ 10°. The values pass through the URL so the page stays shareable.

No JS? Fill the form by hand. The geolocation button needs JavaScript.